Location: Unspecified
(51.0950°N, 12.9690°E)
Time: 22:49:30
(UTC+00:00)

Cosmos 1758 Rocket - Pass Details

Date: 28 October 2021
Orbit: 602 x 635 km, 82.5° (Epoch: 01 December)

Event Time Altitude Azimuth Distance (km) Brightness Sun altitude
Rises 17:44:26 0° 346° (NNW) 2,871 7.2 -18.6°
Reaches altitude 10° 17:46:41 10° 342° (NNW) 1,965 6.4 -18.9°
Maximum altitude 17:50:55 55° 265° (W) 734 4.2 -19.6°
Drops below altitude 10° 17:55:09 10° 188° (S) 1,962 6.2 -20.3°
Sets 17:57:24 0° 184° (S) 2,867 7.0 -20.6°
